Simultaneous Nadir Overpasses (SNOs) Predictions

Prediction of SNOs between AQUA and METOP-A Satellite Orbit:

Table of predicted SNOs for the next 14.0 days since TLE Epoch: 12/2/2011
Index Date Time (AQUA) AQUA Lat,Lon METOP-A Lat,Lon Distance(km) Time Diff (sec)
1 12/04/2011 13:45:20 -73.58, 148.06 -73.48, 147.44 22.46 72
2 12/04/2011 14:34:50 73.70, -44.58 73.73, -44.64 3.26 7
3 12/04/2011 15:24:17 -73.78, 122.89 -73.80, 122.87 2.46 66
4 12/04/2011 16:14:48 76.95, -78.52 76.83, -60.41 455.05 11
5 12/07/2011 09:19:35 -73.66,-145.68 -73.66,-145.73 1.64 69
6 12/07/2011 10:09:04 73.74, 21.78 73.76, 21.85 2.84 0
7 12/07/2011 10:58:31 -73.82,-170.74 -73.83,-170.64 3.47 73
8 12/10/2011 04:03:24 70.58, 118.71 70.60, 107.40 417.43 19
9 12/10/2011 04:53:47 -73.66, -79.23 -73.66, -79.28 1.79 60
10 12/10/2011 05:43:16 73.75, 88.22 73.77, 88.29 3.06 9
11 12/10/2011 06:32:50 -74.18,-105.12 -74.18,-103.34 53.81 68
12 12/12/2011 23:37:48 71.36,-176.07 71.33, 175.05 315.89 37
13 12/13/2011 00:27:57 -73.68, -12.80 -73.70, -12.77 2.78 51
14 12/13/2011 01:17:26 73.77, 154.64 73.75, 154.69 2.23 19
15 12/13/2011 02:07:07 -74.56, -39.57 -74.56, -35.93 107.73 63
16 12/15/2011 19:12:08 71.94,-110.59 71.92,-117.45 236.72 48
17 12/15/2011 20:02:07 -73.71, 53.59 -73.72, 53.70 3.64 41
18 12/15/2011 20:51:35 73.75,-138.87 73.77,-138.84 2.10 30




NCC Satellite Simultaneous Nadir Overpasses (SNOs) Prediction Service
